Вернуться в каталог

STARLINK-5652

АктивенСвязьVLEO
NORAD 55334·PAYLOAD·🇺🇸 United States

Запущен Jan 26, 2023 с Cape Canaveral Space Force Station

Loading…

Ближайшие Пролёты (ближайшие 24 часа)

TLE

СвежийSource: CelesTrak SupGP

Эпоха: Sep 14, 2026, 21:58 UTC

1 55334C 23013D   26257.91576389 -.00047397  00000+0 -17169-2 0  2573
2 55334  43.0019 314.7988 0001370 263.4523  20.3333 15.27598863    14

Отслеживайте STARLINK-5652 в реальном времени с AllMySat

Download on the App Store